Weather History for CYZR - March, 2013

Change the Weather History Date:

Saturday, March 2, 2013

  Actual Average Record
Temperature  
Mean Temperature 29 °F -  
Max Temperature 34 °F 38 °F 58 °F (1991)
Min Temperature 23 °F 22 °F -2 °F (2014)
Degree Days  
Heating Degree Days 36    
Moisture  
Dew Point 22 °F    
Average Humidity 85    
Maximum Humidity 97    
Minimum Humidity 74    
Precipitation  
Precipitation 0.39 in - - ()
Sea Level Pressure  
Sea Level Pressure 30.04 in    
Wind  
Wind Speed 14 mph ()    
Max Wind Speed 21 mph    
Max Gust Speed 25 mph    
Visibility 7.2 miles    
Events Snow    
Averages and records for this station are not official NWS values.
T = Trace of Precipitation, MM = Missing Value Source: Averaged Metar Reports

Daily Weather History Graph

Daily Weather History Graph

Search for Another Location

Airport or City:

Trip Planner

Search our weather history database for the weather conditions in past years. The results will help you decide how hot, cold, wet, or windy it might be!

Date:

Astronomy

Mar. 02, 2013 Rise Set
Actual Time 7:03 AM EST 6:20 PM EST
Civil Twilight 6:34 AM EST 6:48 PM EST
Nautical Twilight 6:01 AM EST 7:21 PM EST
Astronomical Twilight 5:29 AM EST 7:54 PM EST
Moon No Moon Rise 9:21 AM EST
Length of Visible Light 12h 13m
Length of Day
11h 16m
Waning Gibbous, 74% of the Moon is Illuminated
Mar 2
Waning Gibbous
Mar 4
Last Quarter
Mar 11
New
Mar 19
First Quarter
Mar 27
Full

Hourly Weather History & Observations

Time (EST) Temp. Windchill Dew Point Humidity Pressure Visibility Wind Dir Wind Speed Gust Speed Precip Events Conditions
12:00 AM 28.4 °F 16.2 °F 23.0 °F 80% 30.06 in 9.0 mi North 17.3 mph 24.2 mph N/A Snow Light Snow
1:00 AM 31 °F - 30 °F 94% 29.56 in - North 5.8 mph - -  
1:00 AM 26.6 °F 14.3 °F 23.0 °F 86% 30.05 in 9.0 mi NE 16.1 mph - N/A Snow Light Snow
1:13 AM 26.6 °F 14.7 °F 24.8 °F 93% 30.06 in 5.0 mi NE 15.0 mph - N/A Snow Light Snow
1:24 AM 26.6 °F 15.7 °F 24.8 °F 93% 30.05 in 6.0 mi NNE 12.7 mph - N/A Snow Light Snow
1:38 AM 26.6 °F 14.3 °F 24.8 °F 93% 30.06 in 5.0 mi NNE 16.1 mph - N/A Snow Light Snow
1:41 AM 26.6 °F 14.7 °F 24.8 °F 93% 30.06 in 4.0 mi NNE 15.0 mph - N/A Snow Light Snow
1:43 AM 26.6 °F 13.8 °F 23.0 °F 86% 30.06 in 3.0 mi NNE 17.3 mph - N/A Snow Light Snow
1:50 AM 26.6 °F 15.2 °F 23.0 °F 86% 30.06 in 3.0 mi NNE 13.8 mph - N/A Snow Light Snow
1:55 AM 26.6 °F 15.7 °F 23.0 °F 86% 30.06 in 6.0 mi NNE 12.7 mph 18.4 mph N/A Snow Light Snow
1:58 AM 26.6 °F 13.8 °F 23.0 °F 86% 30.06 in 5.0 mi NNE 17.3 mph - N/A Snow Light Snow
1:59 AM 26.6 °F 14.3 °F 23.0 °F 86% 30.06 in 5.0 mi NE 16.1 mph - N/A Snow Light Snow
2:00 AM 24.8 °F 11.9 °F 23.0 °F 93% 30.06 in 5.0 mi NNE 16.1 mph - N/A Snow Light Snow
2:03 AM 24.8 °F 12.4 °F 23.0 °F 93% 30.06 in 5.0 mi NNE 15.0 mph - N/A Snow Light Snow
2:11 AM 24.8 °F 14.0 °F 23.0 °F 93% 30.06 in 5.0 mi NNE 11.5 mph 17.3 mph N/A Snow Light Snow
2:18 AM 24.8 °F 12.4 °F 23.0 °F 93% 30.06 in 6.0 mi NNE 15.0 mph - N/A Snow Light Snow
2:19 AM 26.6 °F 13.8 °F 23.0 °F 86% 30.06 in 7.0 mi NNE 17.3 mph - N/A Snow Light Snow
2:30 AM 24.8 °F 12.4 °F 23.0 °F 93% 30.06 in 6.0 mi NNE 15.0 mph - N/A Snow Light Snow
2:31 AM 24.8 °F 12.4 °F 23.0 °F 93% 30.06 in 5.0 mi NNE 15.0 mph - N/A Snow Light Snow
2:42 AM 24.8 °F 11.9 °F 23.0 °F 93% 30.05 in 6.0 mi NNE 16.1 mph - N/A Snow Light Snow
3:00 AM 24.8 °F 12.4 °F 23.0 °F 93% 30.04 in 9.0 mi NNE 15.0 mph - N/A Snow Light Snow
3:03 AM 24.8 °F 12.9 °F 23.0 °F 93% 30.04 in 9.0 mi NNE 13.8 mph - N/A Snow Light Snow
3:52 AM 24.8 °F 11.9 °F 21.2 °F 86% 30.04 in 9.0 mi NNE 16.1 mph - N/A Snow Light Snow
3:58 AM 24.8 °F 12.9 °F 23.0 °F 93% 30.04 in 5.0 mi NNE 13.8 mph 19.6 mph N/A Snow Light Snow
4:00 AM 24.8 °F 12.4 °F 23.0 °F 93% 30.03 in 5.0 mi NNE 15.0 mph - N/A Snow Light Snow
4:07 AM 24.8 °F 11.9 °F 23.0 °F 93% 30.04 in 2.5 mi NNE 16.1 mph - N/A Snow Light Snow
4:23 AM 24.8 °F 11.5 °F 23.0 °F 93% 30.04 in 3.0 mi NNE 17.3 mph - N/A Snow Light Snow
4:41 AM 24.8 °F 12.9 °F 21.2 °F 86% 30.04 in 6.0 mi NNE 13.8 mph 20.7 mph N/A Snow Light Snow
4:43 AM 24.8 °F 12.9 °F 21.2 °F 86% 30.04 in 9.0 mi NNE 13.8 mph 20.7 mph N/A Snow Light Snow
4:47 AM 24.8 °F 12.4 °F 21.2 °F 86% 30.04 in 9.0 mi NNE 15.0 mph - N/A Snow Light Snow
4:56 AM 24.8 °F 11.9 °F 21.2 °F 86% 30.04 in 9.0 mi NNE 16.1 mph - N/A Snow Light Snow
5:09 AM 24.8 °F 12.9 °F 23.0 °F 93% 30.04 in 7.0 mi NNE 13.8 mph - N/A Snow Light Snow
5:12 AM 24.8 °F 11.9 °F 23.0 °F 93% 30.04 in 7.0 mi NNE 16.1 mph - N/A Snow Light Snow
5:13 AM 24.8 °F 11.9 °F 23.0 °F 93% 30.04 in 7.0 mi NNE 16.1 mph - N/A Snow Light Snow
5:26 AM 24.8 °F 12.4 °F 23.0 °F 93% 30.04 in 6.0 mi NNE 15.0 mph - N/A Snow Light Snow
5:37 AM 24.8 °F 12.4 °F 23.0 °F 93% 30.04 in 9.0 mi NNE 15.0 mph 21.9 mph N/A Snow Light Snow
6:00 AM 24.8 °F 11.9 °F 23.0 °F 93% 30.04 in 6.0 mi NNE 16.1 mph - N/A Snow Light Snow
6:07 AM 24.8 °F 12.9 °F 23.0 °F 93% 30.04 in 5.0 mi NNE 13.8 mph 19.6 mph N/A Snow Light Snow
6:24 AM 24.8 °F 13.4 °F 23.0 °F 93% 30.04 in 5.0 mi NNE 12.7 mph - N/A Snow Light Snow
6:26 AM 24.8 °F 13.4 °F 23.0 °F 93% 30.04 in 7.0 mi NNE 12.7 mph 18.4 mph N/A Snow Light Snow
6:49 AM 24.8 °F 12.9 °F 21.2 °F 86% 30.04 in 5.0 mi NNE 13.8 mph - N/A Snow Light Snow
7:00 AM 32 °F - 31 °F 97% 29.56 in - North 6.9 mph - -  
7:03 AM 24.8 °F 12.9 °F 21.2 °F 86% 30.04 in 6.0 mi NNE 13.8 mph - N/A Snow Light Snow
7:33 AM 24.8 °F 12.9 °F 21.2 °F 86% 30.05 in 9.0 mi NNE 13.8 mph 20.7 mph N/A Snow Light Snow
7:39 AM 24.8 °F 13.4 °F 21.2 °F 86% 30.05 in 9.0 mi NNE 12.7 mph - N/A Snow Light Snow
7:59 AM 24.8 °F 12.9 °F 21.2 °F 86% 30.06 in 8.0 mi NNE 13.8 mph - N/A Snow Light Snow
8:00 AM 24.8 °F 12.9 °F 21.2 °F 86% 30.05 in 8.0 mi NNE 13.8 mph - N/A Snow Light Snow
8:02 AM 24.8 °F 12.9 °F 21.2 °F 86% 30.05 in 8.0 mi NNE 13.8 mph - N/A Snow Light Snow
9:00 AM 24.8 °F 12.9 °F 21.2 °F 86% 30.06 in 6.0 mi NNE 13.8 mph 19.6 mph N/A Snow Light Snow
9:01 AM 24.8 °F 12.9 °F 21.2 °F 86% 30.06 in 5.0 mi NNE 13.8 mph 19.6 mph N/A Snow Light Snow
9:03 AM 26.6 °F 15.7 °F 23.0 °F 86% 30.06 in 5.0 mi NNE 12.7 mph 19.6 mph N/A Snow Light Snow
9:04 AM 26.6 °F 15.7 °F 23.0 °F 86% 30.06 in 5.0 mi NNE 12.7 mph 19.6 mph N/A Snow Light Snow
9:11 AM 26.6 °F 14.7 °F 21.2 °F 80% 30.06 in 4.0 mi NNE 15.0 mph - N/A Snow Light Snow
9:16 AM 26.6 °F 14.7 °F 21.2 °F 80% 30.06 in 6.0 mi NNE 15.0 mph - N/A Snow Light Snow
9:17 AM 26.6 °F 14.7 °F 21.2 °F 80% 30.06 in 6.0 mi NNE 15.0 mph - N/A Snow Light Snow
9:27 AM 26.6 °F 15.7 °F 23.0 °F 86% 30.06 in 9.0 mi NNE 12.7 mph 18.4 mph N/A Snow Light Snow
9:29 AM 26.6 °F 14.3 °F 21.2 °F 80% 30.06 in 9.0 mi NNE 16.1 mph - N/A Snow Light Snow
9:33 AM 26.6 °F 13.8 °F 21.2 °F 80% 30.06 in 5.0 mi NNE 17.3 mph - N/A Snow Light Snow
9:37 AM 26.6 °F 15.2 °F 21.2 °F 80% 30.06 in 5.0 mi NNE 13.8 mph 21.9 mph N/A Snow Light Snow
9:40 AM 26.6 °F 13.8 °F 21.2 °F 80% 30.06 in 4.0 mi NNE 17.3 mph - N/A Snow Light Snow
9:43 AM 26.6 °F 14.7 °F 21.2 °F 80% 30.06 in 4.0 mi NNE 15.0 mph 20.7 mph N/A Snow Light Snow
9:44 AM 26.6 °F 15.2 °F 23.0 °F 86% 30.06 in 4.0 mi NNE 13.8 mph 20.7 mph N/A Snow Light Snow
9:46 AM 26.6 °F 14.7 °F 23.0 °F 86% 30.06 in 4.0 mi NNE 15.0 mph 20.7 mph N/A Snow Light Snow
9:51 AM 26.6 °F 14.7 °F 23.0 °F 86% 30.06 in 3.0 mi NNE 15.0 mph - N/A Snow Light Snow
9:52 AM 26.6 °F 14.3 °F 23.0 °F 86% 30.06 in 3.0 mi NNE 16.1 mph - N/A Snow Light Snow
9:58 AM 26.6 °F 14.3 °F 23.0 °F 86% 30.06 in 4.0 mi NNE 16.1 mph - N/A Snow Light Snow
10:00 AM 26.6 °F 13.4 °F 21.2 °F 80% 30.06 in 5.0 mi North 18.4 mph - N/A Snow Light Snow
10:04 AM 26.6 °F 14.7 °F 21.2 °F 80% 30.06 in 6.0 mi NNE 15.0 mph 21.9 mph N/A Snow Light Snow
10:05 AM 26.6 °F 13.8 °F 21.2 °F 80% 30.06 in 6.0 mi NNE 17.3 mph - N/A Snow Light Snow
10:07 AM 26.6 °F 13.4 °F 21.2 °F 80% 30.06 in 7.0 mi NNE 18.4 mph - N/A Snow Light Snow
10:17 AM 26.6 °F 14.7 °F 21.2 °F 80% 30.06 in 8.0 mi NNE 15.0 mph 21.9 mph N/A Snow Light Snow
10:20 AM 26.6 °F 14.7 °F 21.2 °F 80% 30.06 in 7.0 mi NNE 15.0 mph 21.9 mph N/A Snow Light Snow
10:21 AM 26.6 °F 15.2 °F 21.2 °F 80% 30.06 in 6.0 mi NNE 13.8 mph 21.9 mph N/A Snow Light Snow
10:23 AM 26.6 °F 15.7 °F 21.2 °F 80% 30.06 in 5.0 mi NNE 12.7 mph 21.9 mph N/A Snow Light Snow
10:25 AM 26.6 °F 14.7 °F 21.2 °F 80% 30.06 in 6.0 mi North 15.0 mph 21.9 mph N/A Snow Light Snow
10:59 AM 28.4 °F 16.2 °F 21.2 °F 74% 30.06 in 9.0 mi North 17.3 mph 23.0 mph N/A   Scattered Clouds
11:00 AM 28.4 °F 16.2 °F 21.2 °F 74% 30.06 in 9.0 mi NNE 17.3 mph 23.0 mph N/A   Scattered Clouds
11:07 AM 28.4 °F 16.2 °F 21.2 °F 74% 30.06 in 9.0 mi North 17.3 mph - N/A Snow Light Snow
11:35 AM 28.4 °F 15.8 °F 21.2 °F 74% 30.06 in 9.0 mi North 18.4 mph - N/A   Mostly Cloudy
11:54 AM 28.4 °F 16.2 °F 21.2 °F 74% 30.06 in 9.0 mi North 17.3 mph - N/A Snow Light Snow
12:00 PM 28.4 °F 16.6 °F 21.2 °F 74% 30.06 in 9.0 mi North 16.1 mph 23.0 mph N/A Snow Light Snow
1:00 PM 33 °F - 32 °F 95% 29.60 in - North 6.9 mph - -  
1:00 PM 28.4 °F 15.8 °F 23.0 °F 80% 30.04 in 5.0 mi North 18.4 mph - N/A Snow Light Snow
1:08 PM 26.6 °F 14.7 °F 23.0 °F 86% 30.04 in 6.0 mi North 15.0 mph 21.9 mph N/A Snow Light Snow
1:52 PM 26.6 °F 13.4 °F 23.0 °F 86% 30.04 in 9.0 mi North 18.4 mph - N/A Snow Light Snow
2:00 PM 26.6 °F 14.3 °F 23.0 °F 86% 30.04 in 9.0 mi North 16.1 mph 23.0 mph N/A Snow Light Snow
2:23 PM 26.6 °F 14.7 °F 21.2 °F 80% 30.04 in 9.0 mi North 15.0 mph 25.3 mph N/A Snow Light Snow
2:25 PM 26.6 °F 14.7 °F 23.0 °F 86% 30.04 in 9.0 mi North 15.0 mph 21.9 mph N/A Snow Light Snow
2:28 PM 26.6 °F 13.8 °F 21.2 °F 80% 30.04 in 9.0 mi North 17.3 mph - N/A   Overcast
2:29 PM 26.6 °F 14.3 °F 21.2 °F 80% 30.04 in 9.0 mi North 16.1 mph - N/A   Overcast
2:36 PM 26.6 °F 13.8 °F 23.0 °F 86% 30.04 in 9.0 mi North 17.3 mph - N/A Snow Light Snow
2:55 PM 26.6 °F 14.7 °F 21.2 °F 80% 30.04 in 9.0 mi North 15.0 mph 24.2 mph N/A   Overcast
3:00 PM 26.6 °F 14.3 °F 21.2 °F 80% 30.04 in 9.0 mi North 16.1 mph 24.2 mph N/A   Overcast
3:38 PM 26.6 °F 13.8 °F 21.2 °F 80% 30.04 in 9.0 mi North 17.3 mph - N/A Snow Light Snow
3:53 PM 26.6 °F 15.2 °F 23.0 °F 86% 30.04 in 9.0 mi North 13.8 mph - N/A Snow Light Snow
4:00 PM 26.6 °F 14.3 °F 23.0 °F 86% 30.04 in 9.0 mi North 16.1 mph - N/A Snow Light Snow
4:08 PM 26.6 °F 14.7 °F 23.0 °F 86% 30.04 in 9.0 mi North 15.0 mph 21.9 mph N/A Snow Light Snow
4:09 PM 26.6 °F 14.7 °F 23.0 °F 86% 30.04 in 9.0 mi North 15.0 mph 21.9 mph N/A Snow Light Snow
4:16 PM 26.6 °F 14.7 °F 21.2 °F 80% 30.04 in 9.0 mi North 15.0 mph - N/A Snow Light Snow
4:27 PM 26.6 °F 13.1 °F 23.0 °F 86% 30.04 in 9.0 mi North 19.6 mph - N/A Snow Light Snow
4:31 PM 26.6 °F 15.2 °F 23.0 °F 86% 30.04 in 9.0 mi North 13.8 mph 23.0 mph N/A Snow Light Snow
4:32 PM 26.6 °F 15.2 °F 23.0 °F 86% 30.04 in 9.0 mi North 13.8 mph 23.0 mph N/A Snow Light Snow
4:48 PM 26.6 °F 12.7 °F 21.2 °F 80% 30.04 in 9.0 mi NNW 20.7 mph - N/A Snow Light Snow
4:49 PM 26.6 °F 12.7 °F 21.2 °F 80% 30.04 in 9.0 mi NNW 20.7 mph - N/A Snow Light Snow
4:53 PM 26.6 °F 13.1 °F 21.2 °F 80% 30.04 in 9.0 mi North 19.6 mph 25.3 mph N/A Snow Light Snow
5:01 PM 26.6 °F 14.3 °F 21.2 °F 80% 30.04 in 9.0 mi North 16.1 mph 25.3 mph N/A Snow Light Snow
5:05 PM 26.6 °F 12.7 °F 21.2 °F 80% 30.04 in 9.0 mi NNW 20.7 mph - N/A Snow Light Snow
5:10 PM 26.6 °F 13.1 °F 21.2 °F 80% 30.04 in 9.0 mi NNW 19.6 mph 25.3 mph N/A Snow Light Snow
5:11 PM 26.6 °F 12.7 °F 21.2 °F 80% 30.04 in 9.0 mi North 20.7 mph - N/A Snow Light Snow
5:13 PM 26.6 °F 13.4 °F 21.2 °F 80% 30.04 in 9.0 mi North 18.4 mph 25.3 mph N/A Snow Light Snow
5:23 PM 26.6 °F 13.8 °F 21.2 °F 80% 30.04 in 9.0 mi North 17.3 mph 23.0 mph N/A Snow Light Snow
5:24 PM 26.6 °F 14.3 °F 21.2 °F 80% 30.04 in 9.0 mi North 16.1 mph 23.0 mph N/A Snow Light Snow
5:25 PM 26.6 °F 14.3 °F 21.2 °F 80% 30.04 in 9.0 mi North 16.1 mph 23.0 mph N/A Snow Light Snow
5:27 PM 26.6 °F 13.8 °F 21.2 °F 80% 30.05 in 9.0 mi North 17.3 mph - N/A Snow Light Snow
5:30 PM 26.6 °F 13.1 °F 21.2 °F 80% 30.04 in 9.0 mi NNW 19.6 mph - N/A Snow Light Snow
5:45 PM 26.6 °F 13.8 °F 21.2 °F 80% 30.05 in 9.0 mi NNW 17.3 mph 24.2 mph N/A Snow Light Snow
5:47 PM 26.6 °F 13.8 °F 21.2 °F 80% 30.05 in 9.0 mi NNW 17.3 mph 24.2 mph N/A Snow Light Snow
6:00 PM 24.8 °F 11.1 °F 21.2 °F 86% 30.05 in 9.0 mi NNW 18.4 mph - N/A Snow Light Snow
6:10 PM 24.8 °F 11.1 °F 21.2 °F 86% 30.05 in 9.0 mi NNW 18.4 mph - N/A Snow Light Snow
7:00 PM 33 °F - 32 °F 92% 29.62 in - North 4.6 mph - -  
7:00 PM 24.8 °F 11.9 °F 21.2 °F 86% 30.06 in 9.0 mi NNW 16.1 mph - N/A Snow Light Snow
7:02 PM 24.8 °F 11.9 °F 21.2 °F 86% 30.06 in 9.0 mi NNW 16.1 mph - N/A Snow Light Snow
8:00 PM 24.8 °F 12.4 °F 19.4 °F 80% 30.06 in 9.0 mi NNW 15.0 mph - N/A Snow Light Snow
9:00 PM 24.8 °F 12.4 °F 19.4 °F 80% 30.06 in 9.0 mi NNW 15.0 mph 21.9 mph N/A Snow Light Snow
10:00 PM 24.8 °F 10.7 °F 19.4 °F 80% 30.05 in 9.0 mi NW 19.6 mph - N/A Snow Light Snow
11:00 PM 23.0 °F 9.6 °F 17.6 °F 80% 30.04 in 9.0 mi NW 16.1 mph - N/A Snow Light Snow